#timestamp,LO_Frequency,Hit,StdDev 
1674543615.1,286046998.8,N
1674543616.0,286046998.8,N
1674543635.8,286046998.8,N
1674543655.6,286046998.3,N
1674543675.5,286046999.2,N
1674543695.3,286046997.0,N
1674543715.1,286046996.6,N
1674543735.9,286046999.1,N
1674543755.7,286046998.8,N
1674543775.5,286046998.7,N
1674543795.4,286046999.4,N
1674543815.2,286046997.2,N
1674543835.0,286046997.1,N
1674543835.9,286046997.1,N
1674543855.8,286046997.6,N
1674543875.6,286046998.0,N
1674543895.4,286046997.4,N
1674543915.3,286046995.2,Y
1674543935.1,286046996.6,P
1674543936.0,286046996.6,N
1674543955.8,286046999.1,N
1674543975.7,286046998.9,N
1674543995.5,286046998.7,N
1674544015.3,286046998.8,N
1674544035.2,286046999.4,N
1674544055.9,286046999.5,N
1674544075.7,286046999.4,N
1674544095.5,286046998.9,N
1674544115.4,286046996.5,Y
1674544135.2,286047000.0,P
1674544155.0,286047000.6,N
1674544156.0,286047000.6,N
1674544175.8,286046998.8,N
1674544195.6,286046999.1,N
1674544215.4,286046999.3,N
1674544235.3,286046998.9,N
1674544255.1,286046998.1,N
1674544275.8,286046999.4,N
1674544295.7,286046999.2,N
1674544315.5,286046997.0,Y
1674544335.3,286046998.2,P
1674544355.2,286047001.1,N
1674544375.0,286046998.2,N
1674544375.9,286046998.2,N
1674544395.7,286047001.0,N
1674544415.6,286046998.3,N
1674544435.4,286046999.9,N
1674544455.2,286047002.8,N
1674544475.1,286047000.4,N
1674544476.0,286047000.4,N
1674544495.8,286047001.0,N
1674544515.6,286046998.1,N
1674544535.5,286046998.8,N
1674544555.3,286046998.9,N
1674544575.1,286046998.7,N
1674544595.9,286046999.5,N
1674544615.7,286047001.2,N
1674544635.5,286046998.4,N
1674544655.4,286047000.5,N
1674544675.2,286047001.0,N
1674544695.0,286047000.6,N
1674544695.9,286047000.6,N
1674544715.8,286047000.5,N
1674544735.6,286047000.3,N
1674544755.4,286047000.1,N
1674544775.3,286047001.1,N
1674544795.1,286046999.3,N
1674544815.8,286046998.6,N
1674544835.7,286046998.1,N
1674544855.5,286046999.9,N
1674544875.3,286047000.7,N
1674544895.2,286046998.5,N
1674544915.9,286047001.0,N
1674544935.7,286047002.3,N
1674544955.6,286047000.8,N
1674544975.4,286047001.1,N
1674544995.2,286046999.4,N
1674545015.1,286046999.0,N
1674545016.0,286046999.0,N
1674545035.8,286046998.1,N
1674545055.6,286046999.4,N
1674545075.5,286046999.5,N
1674545095.3,286046996.5,Y
1674545115.1,286047000.3,P
1674545135.9,286047000.1,N
1674545155.7,286047001.2,P
1674545175.5,286046999.7,N
1674545195.4,286047000.6,N
1674545215.2,286047002.8,Y
1674545235.0,286047002.4,P
1674545235.9,286047002.4,N
1674545255.8,286046999.9,N
1674545275.6,286046999.8,N
1674545295.4,286047002.5,N
1674545315.3,286047002.3,N
1674545335.1,286047000.3,N
1674545336.0,286047000.3,N
1674545355.8,286047000.7,N
1674545375.7,286047000.4,N
1674545395.5,286047000.3,N
1674545415.3,286047002.7,N
1674545435.2,286046999.7,N
1674545455.9,286047000.2,N
1674545475.7,286046999.8,N
1674545495.6,286047000.2,N
1674545515.4,286047002.6,N
1674545535.2,286047002.5,N
1674545555.1,286047002.5,N
1674545556.0,286047002.5,N
1674545575.8,286047000.1,N
1674545595.6,286047002.8,N
1674545615.5,286046999.8,N
1674545635.3,286047000.1,N
1674545655.1,286047002.3,N
1674545675.9,286047002.1,N
1674545695.7,286047000.2,N
1674545715.5,286047000.2,N
1674545735.4,286047000.1,N
1674545755.2,286047001.3,N
1674545775.0,286047001.6,N
1674545775.9,286047001.6,N
1674545795.8,286047003.5,Y
1674545815.6,286047003.4,P
1674545835.4,286047004.1,P
1674545855.3,286047003.7,N
1674545875.1,286047003.6,Y
1674545876.0,286047003.6,P
1674545895.8,286046998.9,P
1674545915.7,286046998.6,N
1674545935.5,286046998.7,N
1674545955.3,286046998.8,N
1674545975.2,286047000.7,N
1674545995.9,286047000.5,N
1674546015.7,286047002.2,N
1674546035.5,286047002.1,N
1674546055.4,286047002.5,N
1674546075.2,286046999.8,N
1674546095.0,286047002.8,N
1674546095.9,286047002.8,N
1674546115.8,286047002.1,N
1674546135.6,286047002.3,N
1674546155.4,286047002.7,N
1674546205.3,286047004.4,E
1674546215.2,286047001.6,N
1674546235.1,286046999.0,P
1674546236.0,286046999.0,N
1674546255.8,286047000.0,N
1674546275.6,286047000.0,N
1674546295.5,286047000.5,N
1674546315.3,286047002.1,N
1674546335.1,286047001.5,N
1674546355.9,286047001.9,N
1674546375.7,286047001.9,N
1674546395.5,286047001.3,N
1674546415.4,286047004.4,Y
1674546435.2,286046999.8,P
1674546455.0,286047002.8,P
1674546455.9,286047002.8,N
1674546475.8,286047002.1,N
1674546495.6,286046999.7,N
1674546515.4,286047000.9,N
1674546535.3,286047000.8,N
1674546555.1,286046999.7,N
1674546556.0,286046999.7,N
1674546575.8,286047002.5,N
1674546595.7,286047002.0,N
1674546615.5,286047001.5,N
1674546635.3,286047001.9,N
1674546655.1,286047002.1,N
1674546675.9,286047002.0,N
1674546695.7,286047003.5,Y
1674546715.6,286047003.7,P
1674546735.4,286047003.2,N
1674546755.2,286047004.2,P
1674546775.0,286047003.2,N
1674546776.0,286047003.2,Y
1674546795.8,286047000.8,P
1674546815.6,286047000.6,N
1674546835.5,286047000.9,N
1674546855.3,286047002.7,N
1674546875.1,286046999.7,N
1674546895.9,286046999.9,N
1674546915.7,286047002.5,N
1674546935.5,286047001.6,N
1674546955.3,286047001.9,N
1674546975.2,286047001.7,N
1674546995.0,286047002.2,N
1674546995.9,286047002.2,N
1674547015.7,286047001.5,N
1674547035.6,286046999.7,N
1674547055.4,286046999.8,N
1674547075.2,286047001.6,N
1674547095.1,286047001.6,N
1674547096.0,286047001.6,N
1674547115.8,286047001.4,N
1674547135.6,286047001.8,N
1674547155.5,286047003.2,Y
1674547175.3,286047004.4,P
1674547195.1,286047001.8,N
